Total_Precipitation_Accumulation
1.14 1.24 1.22 1.18 1.21 1.20 1.41 1.60 1.72 1.66 1.64 1.61 1.50 1.47 1.53 1.58 1.54 1.33 1.15 1.15 1.05 0.95 0.91 0.86 0.83 0.85 0.89 0.95 1.02 1.11 1.21 1.36 1.53 1.68 1.92 2.25 2.63 2.99
1.34 1.33 1.31 1.29 1.38 1.32 1.40 1.53 1.68 1.86 1.79 1.50 1.41 1.41 1.38 1.23 1.24 1.13 1.07 1.20 1.09 0.98 0.92 0.89 0.88 0.86 0.83 0.84 0.84 0.87 0.89 0.92 0.97 1.02 1.13 1.31 1.57 1.95
1.62 1.57 1.61 1.68 1.65 1.56 1.59 1.60 1.64 1.85 1.82 1.46 1.49 1.54 1.44 1.26 1.15 1.07 1.04 1.10 1.12 1.18 1.02 0.90 0.80 0.75 0.73 0.74 0.76 0.79 0.81 0.85 0.90 0.91 0.93 0.96 1.00 1.12
1.73 1.92 1.90 1.86 1.74 1.61 1.68 1.63 1.62 1.86 1.80 1.60 1.65 1.70 1.65 1.43 1.32 1.21 1.06 1.04 1.10 1.23 1.06 0.93 0.86 0.80 0.76 0.76 0.77 0.76 0.75 0.77 0.80 0.80 0.79 0.79 0.80 0.84
1.78 1.86 1.93 2.03 1.88 1.76 1.71 1.68 1.73 1.85 1.93 1.80 1.77 1.93 1.89 1.67 1.52 1.30 1.11 1.12 1.01 1.12 1.09 1.00 0.97 0.93 0.88 0.82 0.79 0.76 0.73 0.71 0.71 0.73 0.75 0.77 0.77 0.75
1.84 1.76 1.84 2.07 2.12 2.07 1.90 1.82 1.89 2.00 2.05 2.02 1.99 2.08 2.11 2.03 1.81 1.51 1.33 1.21 1.07 1.01 1.10 1.03 1.00 0.95 0.89 0.82 0.77 0.76 0.75 0.72 0.69 0.67 0.68 0.67 0.65 0.65
1.67 1.58 1.59 1.78 1.99 2.07 1.90 1.85 1.92 1.93 1.95 2.01 2.02 2.07 2.09 2.17 1.99 1.69 1.50 1.37 1.19 1.04 1.08 1.03 0.98 0.90 0.89 0.90 0.84 0.78 0.71 0.68 0.65 0.63 0.62 0.62 0.60 0.58
1.67 1.62 1.51 1.46 1.50 1.64 1.76 1.86 1.95 1.89 1.84 1.96 2.10 2.13 2.10 2.12 2.13 1.97 1.73 1.51 1.36 1.18 1.22 1.22 1.14 1.07 0.92 0.84 0.87 0.80 0.73 0.69 0.67 0.62 0.59 0.56 0.56 0.55
1.54 1.53 1.32 1.21 1.30 1.26 1.43 1.55 1.66 1.72 1.71 1.81 1.92 2.00 2.11 2.25 2.30 2.11 1.93 1.76 1.52 1.32 1.29 1.19 1.11 1.11 1.02 0.94 0.99 0.85 0.80 0.76 0.72 0.69 0.65 0.60 0.55 0.55
1.38 1.37 1.32 1.27 1.26 1.30 1.31 1.30 1.29 1.36 1.45 1.46 1.58 1.79 2.01 2.21 2.34 2.24 2.11 1.82 1.55 1.36 1.31 1.19 1.03 0.98 0.93 0.95 1.03 0.95 0.85 0.79 0.71 0.66 0.63 0.60 0.54 0.51
1.39 1.40 1.41 1.34 1.43 1.30 1.23 1.26 1.27 1.30 1.34 1.39 1.42 1.57 1.82 1.99 2.06 2.08 2.01 1.83 1.59 1.36 1.27 1.24 1.04 0.96 0.92 0.84 0.87 0.93 0.84 0.78 0.74 0.66 0.59 0.58 0.59 0.55
1.43 1.43 1.42 1.31 1.28 1.14 1.06 1.17 1.19 1.22 1.27 1.27 1.27 1.27 1.32 1.61 1.89 1.72 1.69 1.71 1.55 1.32 1.09 1.15 1.14 1.14 1.06 0.83 0.74 0.75 0.72 0.74 0.77 0.74 0.69 0.62 0.63 0.56
1.50 1.44 1.43 1.36 1.10 1.02 0.96 0.98 1.02 1.06 1.17 1.16 1.12 1.13 1.21 1.35 1.57 1.62 1.56 1.51 1.49 1.29 1.10 1.09 1.06 1.07 1.01 0.81 0.67 0.63 0.61 0.59 0.59 0.65 0.70 0.69 0.63 0.57
1.39 1.41 1.43 1.29 1.01 0.88 0.77 0.75 0.73 0.70 0.79 0.92 0.98 1.01 1.05 1.16 1.30 1.44 1.49 1.48 1.36 1.24 1.15 1.11 0.99 0.92 0.87 0.76 0.65 0.58 0.59 0.60 0.59 0.55 0.57 0.72 0.70 0.66
1.20 1.36 1.27 1.08 0.90 0.76 0.70 0.65 0.59 0.55 0.65 0.77 0.85 0.89 0.91 0.98 1.21 1.49 1.65 1.67 1.56 1.33 1.21 1.15 1.06 0.96 0.94 0.83 0.69 0.60 0.57 0.56 0.56 0.59 0.59 0.61 0.64 0.64
1.01 1.10 1.12 1.09 1.03 0.95 0.83 0.72 0.63 0.66 0.74 0.82 0.93 1.03 1.12 1.19 1.27 1.40 1.58 1.63 1.61 1.43 1.22 1.16 1.11 1.11 1.03 0.85 0.77 0.69 0.60 0.54 0.53 0.58 0.65 0.64 0.68 0.73
1.01 1.06 1.09 1.16 1.20 1.21 1.17 1.08 0.99 0.95 0.89 0.87 1.00 1.11 1.15 1.19 1.21 1.30 1.44 1.47 1.36 1.25 1.12 1.03 1.08 1.08 1.04 0.96 0.83 0.69 0.60 0.53 0.51 0.56 0.69 0.70 0.66 0.69
0.92 1.04 1.20 1.30 1.38 1.39 1.37 1.25 1.11 1.00 0.93 0.94 1.00 1.09 1.12 1.14 1.16 1.27 1.39 1.40 1.28 1.15 1.12 0.99 1.00 1.11 1.10 0.97 0.81 0.72 0.65 0.59 0.55 0.61 0.68 0.70 0.66 0.62
0.74 0.91 1.08 1.17 1.25 1.26 1.25 1.18 1.12 1.06 1.04 1.06 1.13 1.17 1.21 1.20 1.21 1.22 1.31 1.35 1.26 1.15 1.12 1.11 1.04 1.04 1.01 0.79 0.60 0.57 0.64 0.64 0.68 0.71 0.72 0.69 0.63 0.57
0.60 0.72 0.85 0.97 1.09 1.21 1.27 1.24 1.21 1.19 1.13 1.10 1.17 1.19 1.22 1.25 1.23 1.19 1.23 1.30 1.28 1.22 1.17 1.11 1.05 0.95 0.89 0.83 0.70 0.61 0.62 0.73 0.79 0.77 0.73 0.73 0.69 0.67
0.63 0.66 0.72 0.84 1.01 1.18 1.28 1.33 1.33 1.26 1.15 1.13 1.14 1.17 1.18 1.22 1.20 1.14 1.19 1.30 1.30 1.24 1.09 0.92 0.87 0.99 1.07 1.14 0.99 0.70 0.62 0.67 0.79 0.86 0.89 0.92 0.86 0.82
0.71 0.72 0.74 0.82 0.97 1.14 1.24 1.27 1.31 1.26 1.20 1.17 1.15 1.18 1.20 1.20 1.18 1.14 1.15 1.22 1.20 1.15 1.06 1.01 1.11 1.28 1.33 1.23 0.98 0.81 0.76 0.75 0.80 0.85 0.87 0.88 0.90 0.83
0.79 0.75 0.74 0.80 0.93 1.07 1.16 1.19 1.24 1.22 1.17 1.15 1.14 1.16 1.21 1.22 1.27 1.27 1.21 1.22 1.24 1.28 1.36 1.32 1.30 1.33 1.32 1.26 1.14 1.01 0.91 0.86 0.87 0.88 0.79 0.75 0.72 0.70